Tracking 27111 objects as of 28-Mar-2023
HD Live streaming from Space Station
objects crossing your sky now

STARLINK-5681

Track STARLINK-5681 now!
10-day predictions
STARLINK-5681 is classified as:


NORAD ID: 55469
Int'l Code: 2023-015W
Perigee: 427.1 km
Apogee: 428.9 km
Inclination: 43.0 °
Period: 93.0 minutes
Semi major axis: 6798 km
RCS: Unknown
Launch date: February 2, 2023
Source: United States (US)
Launch site: AIR FORCE EASTERN TEST RANGE (AFETR)
Your satellite tracking list
Your tracking list is empty




NASA's NSSDC Master Catalog

Two Line Element Set (TLE):
1 55469U 23015W   23087.25001157 -.00896844  00000-0 -17805-1 0  9994
2 55469  43.0009  65.0672 0001337 275.9990 152.0261 15.48586738  8626
Source of the keplerian elements: AFSPC